[[{"header":{"parameterUnit":"m.s-1","parameterCategory":1,"la1":30.2991,"la2":30.254,"lo1":-89.0895,"lo2":-89.0444,"dy":0.0017,"dx":0.0017,"nx":28,"ny":28,"refTime":"2025-09-19T09:00:00:Z","depth":0,"parameterNumber":2,"parameterNumberName":"U-component_of_WINDS"},"data":[0,0,0,0,0,0,0,0,0,0,0,0,0,0,0,0,0,0,0,0,0,0,0,0,0,0,0,0,0,0,0,0,0,0,0,0,0,0,0,0,0,0,0,0,0,0,0,0,0,0,0,0,0,0,0,0,0,0,1.6773,1.6773,0,1.6796,1.6796,1.6797,1.6718,1.6716,1.6713,1.6711,1.6737,1.674,1.6743,0,0,0,0,0,0,0,0,0,0,0,0,0,1.6666,1.6668,1.6773,1.6773,1.6774,1.6796,1.6796,1.6797,1.6718,1.6716,1.6713,1.671,1.6736,1.6739,1.6743,0,0,0,0,0,0,0,0,0,0,0,0,0,1.6703,1.6669,1.6773,1.6737,1.6734,1.6796,1.6796,1.6797,1.6719,1.6715,1.6712,1.6709,1.6735,1.6739,1.6743,1.6841,0,0,1.6757,1.6758,0,0,0,0,0,0,0,0,1.6701,1.6707,1.6742,1.674,1.6737,1.675,1.6768,1.6812,1.672,1.6725,1.6711,1.6707,1.6744,1.6748,1.676,1.6842,1.6844,1.6757,1.676,1.6761,1.6763,0,0,0,0,0,0,0,1.6699,1.6706,1.6782,1.6743,1.6739,1.6722,1.6723,1.6776,1.6754,1.6724,1.6719,1.6722,1.6742,1.6756,1.676,1.6844,1.6757,1.6761,1.6763,1.6765,1.7012,1.7015,0,0,0,0,0,0,1.67,1.6704,1.6781,1.6783,1.671,1.6726,1.6728,1.675,1.6754,1.6751,1.6725,1.6718,1.675,1.6755,1.6761,1.6878,1.6761,1.6766,1.6768,1.7008,1.7013,1.7017,0,0,0,0,0,0,1.6698,1.6708,1.6781,1.6742,1.675,1.6732,1.6757,1.6752,1.6765,1.6754,1.675,1.6743,1.6748,1.6754,1.6822,1.6877,1.6767,1.6771,1.7003,1.7009,1.7015,1.7111,0,0,0,0,0,0,1.6695,1.6708,1.6743,1.6743,1.6752,1.6841,1.676,1.6755,1.6773,1.6764,1.677,1.6767,1.6745,1.6816,1.6827,1.6881,1.6775,1.6998,1.7006,1.7013,1.7103,1.712,1.7134,0,0,0,0,0,1.6692,1.6769,1.6746,1.6755,1.6796,1.6844,1.6849,1.6822,1.6778,1.6814,1.6808,1.6767,1.687,1.6824,1.6835,1.6892,1.6995,1.7004,1.7012,1.7096,1.7117,1.7134,0,0,0,0,0,0,1.6776,1.6769,1.6742,1.6821,1.6834,1.6831,1.6876,1.6844,1.6869,1.686,1.6826,1.6828,1.6903,1.6904,1.6853,1.6989,1.6925,1.6936,1.6985,1.7004,1.7019,1.7018,1.6778,0,0,0,0,0,1.6804,1.6842,1.6834,1.6905,1.6913,1.6894,1.6913,1.6891,1.6903,1.6908,1.6906,1.692,1.6956,1.698,1.7012,1.7103,1.7105,1.7148,1.7163,1.7176,1.7187,1.7238,1.7258,1.7046,1.7046,1.7046,0,0,1.6862,1.6863,1.6889,1.6922,1.6929,1.6972,1.6899,1.6945,1.6977,1.6915,1.698,1.698,1.6993,1.7074,1.711,1.7077,1.7246,1.7188,1.7198,1.7201,1.7249,1.7269,1.7287,1.7052,1.7051,1.705,0,0,1.6989,1.6993,1.7053,1.7063,1.7074,1.7062,1.7077,1.7079,1.7076,1.714,1.7096,1.7134,1.7195,1.7208,1.7222,1.7358,1.7323,1.7369,1.745,1.7501,1.7517,1.7532,1.7583,1.7601,1.738,1.738,1.738,0,1.706,1.712,1.7089,1.714,1.7157,1.7104,1.7167,1.7177,1.72,1.7213,1.7177,1.7255,1.726,1.7344,1.7378,1.7391,1.7409,1.7368,1.7517,1.7532,1.7545,1.7593,1.7612,1.7386,1.7385,1.7385,1.7384,0,1.7207,1.7251,1.7298,1.7322,1.7344,1.7401,1.738,1.7407,1.7384,1.7376,1.7444,1.7449,1.7482,1.7501,1.7478,1.7583,1.7563,1.7523,1.7458,1.7572,1.7616,1.7634,1.7394,1.7392,1.739,1.7389,0,0,1.7386,1.7394,1.7412,1.7423,1.7434,1.7467,1.7523,1.7556,1.7581,1.7599,1.7646,1.7701,1.7664,1.7681,1.766,1.7704,1.7814,1.7658,1.7658,1.7689,1.7933,1.7964,1.7986,1.7791,1.7794,1.7797,1.7933,0,1.7513,1.7607,1.7582,1.7677,1.7718,1.767,1.7718,1.7732,1.7727,1.7762,1.7756,1.7796,1.7744,1.7754,1.7796,1.7792,1.7863,1.7782,1.7836,1.7839,1.7835,1.8009,1.8041,1.8168,1.795,1.7953,1.7955,0,1.7672,1.7697,1.7796,1.7803,1.7819,1.7863,1.7893,1.7926,1.7942,1.7935,1.7955,1.7926,1.7984,1.7919,1.7999,1.7944,1.7965,1.7967,1.7972,1.7976,1.7904,1.8019,1.8208,1.8228,1.7981,1.7979,1.7977,0,1.7795,1.7853,1.792,1.7931,1.7941,1.7973,1.7979,1.7991,1.8013,1.8039,1.8054,1.8087,1.8105,1.8132,1.8114,1.8068,1.8198,1.8131,1.8196,1.8197,1.8225,1.8224,1.8422,1.8238,1.8238,1.8237,1.8237,0,1.7939,1.8002,1.7976,1.8018,1.8088,1.806,1.8131,1.8131,1.8142,1.8185,1.8145,1.8186,1.8159,1.8198,1.8185,1.8255,1.8263,1.826,1.8256,1.8265,1.8265,1.8278,1.8269,1.8242,1.8241,1.824,1.8239,0,1.8088,1.8073,1.8143,1.8147,1.815,1.8202,1.8206,1.8246,1.8238,1.8293,1.8304,1.8293,1.8338,1.8323,1.837,1.8361,1.8451,1.8434,1.8445,1.8442,1.8508,1.8503,1.8722,1.875,1.8547,1.8549,1.8551,0,1.8181,1.8228,1.8238,1.8263,1.8272,1.8313,1.8336,1.8312,1.8337,1.836,1.8398,1.8439,1.8471,1.8545,1.8542,1.858,1.8565,1.8639,1.857,1.8578,1.8568,1.8566,1.8572,1.8653,1.8655,1.8657,1.8659,0,1.8348,1.8339,1.8373,1.8406,1.8435,1.846,1.8481,1.8504,1.8482,1.8513,1.8558,1.8583,1.8633,1.8675,1.8709,1.8717,1.8686,1.8681,1.8698,1.8707,1.8713,1.8713,1.8484,1.8676,1.8674,1.8673,1.8672,1.8671,1.8473,1.8514,1.8528,1.8568,1.8582,1.8604,1.8642,1.8641,1.8678,1.8716,1.87,1.8753,1.877,1.8813,1.8825,1.8868,1.8839,1.8864,1.887,1.8877,1.8886,1.8706,1.8874,1.8873,1.8873,1.8872,1.8872,0,1.864,1.8647,1.8685,1.8716,1.8749,1.8716,1.8739,1.8769,1.8816,1.8834,1.8867,1.8921,1.8962,1.8964,1.9004,1.9038,1.9024,1.9049,1.9047,1.9049,1.8908,1.889,1.9059,1.9059,1.9059,1.9059,1.9059,1.9059,1.8731,1.8799,1.8793,1.8869,1.8876,1.8927,1.8944,1.8964,1.8979,1.9041,1.9075,1.9076,1.9089,1.913,1.9168,1.9167,1.9184,1.9215,1.9209,1.9078,1.9059,1.9041,1.9024,1.9218,1.9219,1.9347,1.9348,1.9349]},{"header":{"parameterUnit":"m.s-1","parameterCategory":1,"la1":30.2991,"la2":30.254,"lo1":-89.0895,"lo2":-89.0444,"dy":0.0017,"dx":0.0017,"nx":28,"ny":28,"refTime":"2025-09-19T09:00:00:Z","depth":0,"parameterNumber":3,"parameterNumberName":"V-component_of_WINDS"},"data":[0,0,0,0,0,0,0,0,0,0,0,0,0,0,0,0,0,0,0,0,0,0,0,0,0,0,0,0,0,0,0,0,0,0,0,0,0,0,0,0,0,0,0,0,0,0,0,0,0,0,0,0,0,0,0,0,0,0,-2.0882,-2.0883,0,-2.0898,-2.0898,-2.0898,-2.0909,-2.0909,-2.0909,-2.0909,-2.0922,-2.0922,-2.0922,0,0,0,0,0,0,0,0,0,0,0,0,0,-2.086,-2.0861,-2.0882,-2.0883,-2.0883,-2.0898,-2.0898,-2.0898,-2.0909,-2.0909,-2.0909,-2.091,-2.0922,-2.0922,-2.0922,0,0,0,0,0,0,0,0,0,0,0,0,0,-2.0872,-2.0861,-2.0882,-2.089,-2.0891,-2.0898,-2.0898,-2.0898,-2.0909,-2.0909,-2.0909,-2.091,-2.0922,-2.0922,-2.0922,-2.0922,0,0,-2.0923,-2.0924,0,0,0,0,0,0,0,0,-2.0871,-2.0873,-2.0889,-2.089,-2.0891,-2.0902,-2.0895,-2.0906,-2.0909,-2.0902,-2.0909,-2.091,-2.0915,-2.0916,-2.0918,-2.0922,-2.0923,-2.0923,-2.0924,-2.0924,-2.0924,0,0,0,0,0,0,0,-2.0871,-2.0872,-2.0888,-2.0889,-2.089,-2.0892,-2.0894,-2.0897,-2.0907,-2.0903,-2.0904,-2.0905,-2.0915,-2.0918,-2.0919,-2.0923,-2.0923,-2.0924,-2.0924,-2.0924,-2.0929,-2.0929,0,0,0,0,0,0,-2.0869,-2.0872,-2.0888,-2.0889,-2.0881,-2.0893,-2.0895,-2.0898,-2.0907,-2.0909,-2.0905,-2.0906,-2.0917,-2.0918,-2.0919,-2.092,-2.0924,-2.0924,-2.0924,-2.0929,-2.0929,-2.0929,0,0,0,0,0,0,-2.0868,-2.087,-2.0887,-2.0881,-2.0883,-2.0893,-2.0896,-2.0898,-2.0901,-2.0909,-2.0911,-2.0906,-2.0917,-2.0919,-2.0922,-2.0921,-2.0924,-2.0925,-2.0929,-2.0929,-2.0929,-2.0922,0,0,0,0,0,0,-2.0868,-2.087,-2.087,-2.088,-2.0883,-2.089,-2.0896,-2.0898,-2.0902,-2.0903,-2.0911,-2.0912,-2.0918,-2.0921,-2.0922,-2.0921,-2.0925,-2.093,-2.0929,-2.0929,-2.0922,-2.0922,-2.0921,0,0,0,0,0,-2.0867,-2.0866,-2.087,-2.0872,-2.0884,-2.089,-2.0891,-2.0899,-2.0902,-2.0902,-2.0908,-2.0912,-2.0921,-2.0921,-2.0922,-2.0922,-2.093,-2.0929,-2.0929,-2.0922,-2.0922,-2.0921,0,0,0,0,0,0,-2.0853,-2.0867,-2.0872,-2.0875,-2.0881,-2.0892,-2.0892,-2.0897,-2.0902,-2.0903,-2.0911,-2.0912,-2.0915,-2.0919,-2.0919,-2.0923,-2.0926,-2.0926,-2.092,-2.092,-2.0919,-2.0918,-2.0925,0,0,0,0,0,-2.0851,-2.0856,-2.0868,-2.0869,-2.0872,-2.0882,-2.0885,-2.089,-2.0897,-2.0899,-2.0905,-2.0911,-2.0915,-2.0917,-2.0922,-2.0923,-2.0925,-2.0923,-2.0923,-2.0922,-2.0922,-2.0925,-2.0924,-2.0929,-2.0929,-2.0929,0,0,-2.0846,-2.0854,-2.0856,-2.0866,-2.0872,-2.0877,-2.0884,-2.0888,-2.0891,-2.0899,-2.0903,-2.0908,-2.0915,-2.0918,-2.0919,-2.0921,-2.0922,-2.0922,-2.0921,-2.0922,-2.0924,-2.0924,-2.0924,-2.0928,-2.0929,-2.0929,0,0,-2.0838,-2.0845,-2.0848,-2.0854,-2.0864,-2.087,-2.0871,-2.0881,-2.0885,-2.089,-2.0897,-2.0901,-2.0907,-2.0913,-2.0916,-2.0914,-2.0918,-2.0915,-2.0911,-2.0914,-2.0913,-2.0913,-2.0913,-2.0913,-2.0915,-2.0915,-2.0915,0,-2.083,-2.0838,-2.0848,-2.0853,-2.0857,-2.0867,-2.087,-2.0875,-2.0885,-2.0888,-2.089,-2.0901,-2.0905,-2.0911,-2.091,-2.0912,-2.0914,-2.0914,-2.0913,-2.0913,-2.0913,-2.0913,-2.0913,-2.0914,-2.0914,-2.0914,-2.0914,0,-2.0828,-2.0834,-2.0835,-2.0846,-2.0851,-2.0854,-2.0865,-2.0868,-2.0874,-2.0881,-2.0886,-2.0893,-2.09,-2.0901,-2.0905,-2.0907,-2.0908,-2.0912,-2.0915,-2.0912,-2.0912,-2.0912,-2.0914,-2.0914,-2.0914,-2.0914,0,0,-2.0811,-2.083,-2.083,-2.0837,-2.0849,-2.0853,-2.0858,-2.0866,-2.087,-2.0876,-2.0881,-2.0888,-2.0892,-2.0896,-2.0901,-2.0903,-2.0903,-2.0906,-2.0907,-2.0906,-2.0906,-2.0904,-2.0904,-2.0906,-2.0906,-2.0906,-2.0906,0,-2.0806,-2.0816,-2.0826,-2.0832,-2.0838,-2.0849,-2.0853,-2.0861,-2.0868,-2.0873,-2.088,-2.0885,-2.089,-2.0892,-2.0895,-2.0902,-2.0903,-2.0902,-2.091,-2.091,-2.0908,-2.0904,-2.0902,-2.0901,-2.0906,-2.0906,-2.0906,0,-2.0801,-2.081,-2.0818,-2.0832,-2.0834,-2.0838,-2.0848,-2.0853,-2.0863,-2.0867,-2.0873,-2.088,-2.0885,-2.0888,-2.0896,-2.0896,-2.09,-2.0904,-2.0904,-2.0905,-2.0908,-2.0906,-2.0901,-2.0902,-2.0906,-2.0906,-2.0906,0,-2.079,-2.0803,-2.081,-2.0815,-2.0831,-2.0834,-2.084,-2.085,-2.0855,-2.0863,-2.0867,-2.0875,-2.0879,-2.0885,-2.0894,-2.0895,-2.0901,-2.0905,-2.0906,-2.0906,-2.0906,-2.0906,-2.0903,-2.0908,-2.0908,-2.0908,-2.0908,0,-2.0783,-2.0788,-2.0805,-2.0809,-2.0815,-2.0827,-2.0832,-2.0839,-2.0848,-2.0854,-2.0863,-2.0868,-2.0879,-2.0885,-2.0892,-2.0898,-2.09,-2.0904,-2.0905,-2.0903,-2.0903,-2.0906,-2.0906,-2.0908,-2.0908,-2.0908,-2.0908,0,-2.0771,-2.0783,-2.0791,-2.0807,-2.0811,-2.0814,-2.0828,-2.0832,-2.084,-2.0847,-2.085,-2.0862,-2.087,-2.088,-2.089,-2.0895,-2.0901,-2.0903,-2.0898,-2.0899,-2.09,-2.09,-2.0899,-2.09,-2.0904,-2.0904,-2.0904,0,-2.0766,-2.077,-2.0787,-2.0793,-2.08,-2.0808,-2.0814,-2.0826,-2.0832,-2.0844,-2.0847,-2.0857,-2.0865,-2.0878,-2.0887,-2.0896,-2.0899,-2.0898,-2.09,-2.0898,-2.09,-2.09,-2.0901,-2.0897,-2.0897,-2.0897,-2.0897,0,-2.0757,-2.0764,-2.0773,-2.0784,-2.0792,-2.0801,-2.0811,-2.0815,-2.0829,-2.0835,-2.0845,-2.0851,-2.0864,-2.0873,-2.0883,-2.0889,-2.0896,-2.0896,-2.0897,-2.0895,-2.0892,-2.0895,-2.0897,-2.0896,-2.0896,-2.0896,-2.0896,-2.0896,-2.0749,-2.0754,-2.0767,-2.0778,-2.0787,-2.0796,-2.0802,-2.0812,-2.0821,-2.0833,-2.0839,-2.0849,-2.086,-2.0875,-2.0882,-2.0889,-2.0891,-2.0892,-2.0892,-2.0892,-2.0892,-2.0891,-2.0891,-2.0891,-2.0891,-2.0891,-2.0891,0,-2.0741,-2.0751,-2.0761,-2.0775,-2.0784,-2.0791,-2.0802,-2.0809,-2.0818,-2.0828,-2.0837,-2.0849,-2.0859,-2.087,-2.088,-2.0884,-2.0888,-2.0887,-2.0887,-2.0888,-2.0889,-2.0888,-2.0884,-2.0884,-2.0884,-2.0884,-2.0884,-2.0884,-2.0738,-2.0747,-2.0756,-2.077,-2.0779,-2.0791,-2.0797,-2.0806,-2.0815,-2.0828,-2.0837,-2.0845,-2.0856,-2.0868,-2.0878,-2.0881,-2.0884,-2.0883,-2.0887,-2.0887,-2.0888,-2.0889,-2.0887,-2.0883,-2.0883,-2.0885,-2.0885,-2.0885]}]]